Temp
11 11 11 10 10 10 10 10 10 10 10 11 12 12 12 13 13 13 17 14 15 15 16 17 19 20 20 21 21 22 19 20 22 24 24 22 22 22 21 21 23 21 19 19 20
11 11 11 10 10 10 10 10 10 10 10 10 12 12 13 13 13 17 14 15 14 15 16 19 20 21 20 21 20 19 19 22 21 21 22 21 22 20 20 21 20 18 19 19 19
11 11 11 10 10 10 10 10 10 10 10 11 12 13 14 14 17 16 14 15 15 16 17 19 20 21 19 21 20 20 19 21 21 20 21 21 20 21 21 20 21 18 17 18 19
11 11 11 11 10 10 10 10 10 10 10 11 12 13 14 14 18 15 15 15 16 16 18 19 20 19 19 19 20 19 21 21 20 18 19 20 21 20 19 20 20 20 18 18 18
11 11 11 11 11 11 11 11 10 10 10 11 13 13 14 17 18 15 15 16 16 17 18 19 19 19 19 21 20 19 19 20 20 18 18 19 18 18 19 20 20 19 18 18 18
11 11 11 11 11 11 12 12 12 11 11 12 13 13 14 16 16 16 16 16 17 18 18 19 20 21 19 20 19 19 20 19 19 18 18 17 17 18 18 19 18 18 17 18 17
11 11 11 11 11 11 11 12 12 12 12 12 13 13 15 17 16 16 16 16 16 17 18 18 19 19 20 19 19 19 17 18 18 18 18 18 16 17 18 19 18 16 16 17 17
11 11 11 11 11 11 11 12 12 12 12 12 13 13 15 16 16 15 16 16 16 17 17 17 17 18 18 17 18 17 17 17 19 18 17 16 14 19 18 18 17 16 16 16 17
11 11 11 11 11 11 11 12 12 12 12 12 13 14 16 15 15 16 17 18 17 17 17 17 18 18 17 16 16 17 16 17 17 18 17 15 16 18 19 17 17 16 16 15 15
11 11 11 11 11 11 12 12 12 12 12 13 15 15 16 17 16 16 16 17 17 17 17 17 16 16 16 15 16 18 17 20 19 17 17 16 15 17 17 17 16 16 16 16 16
11 11 11 11 10 11 12 13 13 13 14 16 17 17 18 16 15 16 16 17 17 17 16 16 16 15 17 18 19 18 18 18 19 17 16 15 16 17 17 16 15 16 16 16 16
11 11 10 11 10 10 11 13 12 11 13 16 17 18 18 16 16 17 17 16 16 16 17 16 15 18 19 18 17 17 17 17 18 16 15 15 16 17 18 16 16 16 16 16 15
10 10 10 10 10 10 12 13 11 12 13 17 17 17 16 17 17 16 16 16 17 16 17 17 17 18 18 16 17 17 17 17 17 16 15 14 15 15 17 16 16 16 16 15 13
10 10 10 10 10 12 12 11 10 11 11 16 15 16 17 16 16 19 17 17 17 17 18 18 16 17 16 17 17 16 16 16 16 15 14 16 12 16 14 14 14 14 14 13 13
9 10 9 9 10 12 11 11 10 11 12 16 15 17 16 16 15 16 17 16 16 17 17 16 15 15 16 17 17 15 15 15 15 13 14 16 12 16 14 13 13 13 13 13 12
9 9 9 9 9 10 11 11 10 11 10 15 14 14 14 16 16 15 15 15 16 17 16 15 15 16 16 15 15 14 14 14 14 13 9 15 14 14 14 14 13 13 13 12 12
8 9 9 9 9 9 9 10 10 11 17 14 13 14 14 14 15 14 14 13 14 12 13 15 14 14 15 14 14 14 14 11 10 9 10 15 13 13 16 17 15 13 12 12 12
8 8 9 9 9 9 8 9 10 14 15 16 16 14 14 16 15 14 14 13 15 16 14 12 12 13 14 15 15 13 14 10 13 12 13 14 11 15 15 15 15 14 13 12 11
8 8 8 8 8 8 7 8 10 14 18 15 15 14 14 16 15 15 14 15 16 15 14 12 12 13 14 14 13 14 11 13 12 15 10 13 16 15 14 14 15 13 12 11 11
7 7 7 8 8 7 7 10 11 16 17 16 14 15 13 15 13 13 14 17 17 16 16 15 9 13 12 13 13 12 13 9 7 9 12 15 18 13 12 12 13 13 12 12 11
6 7 7 8 6 6 8 9 12 15 16 16 15 16 16 14 13 13 14 15 16 15 13 14 11 11 11 10 11 10 11 10 9 8 10 11 14 15 14 13 12 12 12 12 11
7 7 6 6 5 5 8 9 12 15 15 14 13 14 17 15 12 12 13 15 14 14 12 12 9 8 11 11 11 12 10 8 8 7 6 7 10 14 13 13 14 12 13 12 12
7 6 5 5 8 7 9 11 12 13 13 13 13 15 16 15 11 13 14 13 13 13 11 11 8 7 10 9 10 10 10 6 6 7 7 8 11 13 13 12 13 14 14 12 14
6 6 3 2 4 9 9 10 10 12 12 13 13 14 14 15 14 13 10 12 13 13 12 11 11 9 10 9 6 4 5 8 7 5 9 10 13 12 12 12 12 11 11 10 11
5 5 7 6 6 6 8 8 9 10 11 12 11 13 12 11 12 12 11 10 12 11 12 8 7 9 12 10 9 7 4 6 6 9 9 14 13 15 14 14 14 12 12 11 11
6 6 4 5 8 6 6 8 10 11 9 9 10 12 13 10 12 12 9 9 8 9 6 5 7 11 11 12 10 9 9 8 8 9 9 10 10 12 12 11 11 11 11 11 10
7 7 5 6 7 6 7 8 9 12 9 11 10 10 12 13 14 14 12 11 10 7 4 5 6 6 9 10 10 8 10 10 8 8 9 7 10 12 12 11 11 11 11 10 9
Height
783 780 779 778 774 770 768 766 764 762 760 758 756 754 752 751 751 751 750 753 752 752 752 752 752 751 750 749 749 748 762 760 749 739 735 740 743 745 750 753 751 755 760 765 769
782 781 778 776 774 771 767 765 763 761 759 757 755 753 751 751 750 747 751 751 751 751 752 750 748 749 751 748 752 756 760 748 744 742 741 744 746 749 755 756 758 764 766 767 769
783 779 777 775 771 771 767 763 761 759 757 756 754 753 752 751 747 746 749 750 750 750 750 749 747 747 750 746 750 750 756 744 744 747 743 744 751 748 754 758 752 761 765 767 769
783 780 776 772 772 767 765 762 759 757 755 754 754 755 754 752 748 747 748 749 750 750 749 748 747 750 750 752 745 755 743 743 746 752 751 751 749 753 756 755 749 748 758 764 768
782 779 776 773 768 766 763 760 758 756 755 753 755 756 755 750 745 747 747 749 749 749 748 747 747 747 750 744 745 753 748 746 748 754 755 753 758 758 754 750 751 755 760 765 767
780 777 774 771 768 764 761 759 756 756 755 754 754 756 757 753 747 747 747 749 749 748 747 747 744 741 746 744 750 748 745 746 748 754 755 759 758 756 752 749 754 759 763 765 767
779 776 772 769 767 763 760 757 755 754 754 754 754 755 755 750 747 747 748 749 749 748 747 747 746 746 744 749 748 751 757 752 751 754 755 756 762 753 750 748 755 761 764 764 767
777 775 771 769 764 762 759 755 754 752 753 754 754 754 750 745 747 747 748 749 749 749 748 749 748 747 748 751 754 758 758 759 742 750 757 761 765 739 744 749 754 758 762 764 767
774 773 770 767 764 759 757 754 752 752 751 754 754 752 745 744 745 745 746 746 748 749 749 749 748 748 753 757 760 757 763 754 753 747 753 762 758 743 740 748 753 755 758 762 765
770 770 768 767 762 757 755 752 752 750 752 752 752 752 741 738 741 745 746 746 746 748 750 750 751 753 755 758 761 751 755 738 742 750 751 756 757 747 745 748 752 753 755 757 759
766 767 766 764 762 757 753 753 753 751 749 736 733 731 731 737 741 744 745 745 745 747 749 747 753 753 746 742 740 746 746 745 739 747 754 756 750 744 741 747 752 751 751 753 755
761 762 763 762 761 757 752 753 750 752 742 731 728 729 728 733 739 740 743 745 744 747 741 749 751 736 734 739 745 748 751 749 743 749 758 754 745 736 734 739 743 746 748 750 754
756 757 758 758 758 754 750 750 750 750 744 719 717 723 728 731 730 733 739 738 738 741 737 741 740 737 739 746 749 749 751 749 750 750 749 753 744 734 733 737 741 743 743 747 753
750 751 754 756 758 748 748 747 747 751 747 717 720 719 723 726 730 723 731 734 734 737 732 734 739 740 744 744 743 753 750 753 755 759 761 746 769 734 741 745 747 749 747 751 756
745 745 748 749 749 747 742 744 747 751 746 707 716 716 719 722 723 727 729 734 734 733 735 740 743 746 745 741 742 754 755 757 760 765 761 744 771 734 741 748 749 749 749 753 758
740 740 742 742 744 745 743 744 748 751 746 709 715 719 722 717 719 728 733 734 733 730 736 740 741 739 739 746 748 753 756 759 759 764 796 748 755 748 742 738 745 748 750 754 759
733 733 733 734 735 740 741 743 751 738 698 707 711 712 715 714 716 726 730 734 734 748 744 740 745 745 744 751 753 756 757 777 785 794 781 748 757 742 728 724 734 744 750 755 759
727 727 724 727 730 735 738 743 738 704 699 693 697 708 711 706 710 719 726 730 725 721 731 750 757 746 745 742 745 754 754 773 760 766 757 751 763 733 729 727 729 737 747 754 759
722 720 719 719 727 730 742 735 724 701 680 693 701 707 709 699 703 712 718 717 710 717 729 736 748 746 745 745 750 750 767 755 760 744 781 747 732 736 734 736 734 741 747 754 758
717 714 711 717 723 729 734 712 710 691 682 687 695 693 700 694 707 711 712 699 702 704 711 718 763 747 753 751 752 752 753 777 788 787 762 731 717 736 745 744 742 743 749 752 754
713 707 702 709 716 722 716 704 699 689 686 687 686 687 684 692 703 708 704 702 699 710 718 721 739 757 755 757 755 767 760 764 771 782 777 761 737 727 731 735 743 745 746 749 751
705 703 701 705 715 712 703 701 694 682 687 690 691 687 675 686 701 706 703 698 701 709 723 726 742 768 747 751 752 746 757 767 778 791 795 794 767 730 732 734 734 741 742 744 746
695 698 699 700 693 696 695 690 687 682 691 694 690 680 675 682 708 698 696 703 706 713 720 726 745 770 759 760 755 756 752 772 778 778 783 787 753 736 736 737 736 737 740 743 742
695 694 702 703 696 681 689 689 692 685 687 689 687 682 685 682 689 698 713 709 711 713 716 721 723 736 739 744 762 779 771 758 770 789 759 752 731 739 736 736 738 739 740 741 743
689 685 678 687 688 688 687 689 685 686 689 691 695 688 688 699 695 698 710 717 716 719 718 734 747 734 724 737 744 756 773 766 770 749 755 721 724 720 725 728 729 733 736 738 740
681 682 684 682 678 691 693 683 679 677 688 695 694 685 682 692 686 695 708 715 721 724 737 745 747 727 729 724 735 743 746 752 751 749 745 738 733 722 722 728 732 735 736 737 740
676 679 684 674 675 682 678 681 677 670 685 679 688 694 686 681 679 680 688 696 705 725 744 746 745 750 743 736 738 749 725 728 739 736 737 754 722 720 723 727 730 733 736 739 741
Wind_Speed
14 15 16 18 16 13 14 13 13 12 10 9 7 7 6 0 1 4 2 6 6 8 6 8 5 7 8 4 2 2 3 5 10 7 1 7 4 3 5 3 1 6 8 10 19
12 14 14 15 17 16 13 13 12 10 10 10 6 4 2 1 8 9 2 3 6 6 5 9 7 6 5 6 4 5 3 5 6 7 6 7 3 9 2 6 4 9 8 12 14
11 12 13 15 14 16 15 13 12 11 10 8 4 4 3 5 8 5 2 1 2 1 8 5 8 7 8 4 4 7 4 6 5 9 9 4 1 4 1 5 6 12 10 8 9
14 12 14 12 15 14 16 15 12 11 7 6 2 4 3 8 2 5 2 1 1 3 5 7 7 6 5 6 10 3 8 2 4 4 3 1 2 1 6 2 8 7 13 8 7
14 15 14 16 15 16 17 13 13 9 4 2 2 2 5 6 0 4 3 3 2 3 7 6 8 7 6 4 3 6 9 3 2 4 4 3 4 6 6 5 7 9 9 8 7
15 13 15 17 18 17 17 13 11 6 2 1 3 2 5 9 4 3 3 1 2 4 4 5 4 4 4 3 3 5 6 3 4 5 5 5 7 7 7 7 9 8 6 6 8
17 15 14 15 18 19 18 14 10 4 3 2 4 3 9 9 4 3 2 1 1 3 2 2 5 3 1 2 3 2 4 6 6 6 5 1 8 9 9 9 11 9 8 8 8
19 17 17 16 15 19 20 15 8 6 6 4 3 4 6 5 5 4 4 4 2 2 2 1 3 4 4 6 2 4 5 4 8 8 5 5 7 7 10 7 9 11 8 7 7
19 19 18 17 15 16 20 15 7 7 7 5 5 7 6 5 6 8 7 5 6 5 3 3 3 2 2 4 4 6 5 8 5 9 5 7 6 7 6 9 9 9 9 11 10
19 18 18 18 15 14 17 9 5 5 9 8 12 4 7 7 11 7 7 6 4 6 5 4 4 4 5 5 4 2 5 4 3 8 7 7 13 8 8 7 8 9 10 9 10
20 20 17 18 17 13 14 5 3 4 15 9 9 5 8 9 9 9 11 8 5 6 6 9 5 6 12 11 6 6 7 6 6 5 3 10 13 10 9 10 9 9 7 9 8
22 20 18 17 16 14 7 4 4 3 7 21 18 14 4 13 7 9 13 8 6 10 11 4 8 1 6 7 1 4 6 6 4 8 2 9 13 9 9 10 14 9 9 8 8
24 21 19 15 13 11 3 10 6 5 5 8 20 17 11 13 8 14 10 6 6 9 10 8 4 5 5 4 5 7 5 3 2 2 11 8 10 10 3 6 4 3 5 8 10
22 23 19 14 9 7 2 2 1 2 4 8 7 7 17 8 7 9 18 4 6 7 8 6 7 6 5 6 5 5 6 2 3 3 2 4 5 3 7 6 5 7 7 9 10
23 23 21 18 4 5 8 2 2 0 4 11 10 4 12 11 11 7 6 3 7 6 2 3 7 6 6 2 2 4 3 2 3 6 6 2 1 1 9 8 8 7 8 9 9
28 22 23 18 18 6 6 5 2 2 8 7 7 9 17 15 8 7 5 4 4 1 2 4 3 2 2 6 4 6 3 6 3 3 1 4 3 4 6 9 10 8 9 9 9
28 22 27 20 5 18 11 7 3 6 1 8 7 13 16 12 12 10 12 9 6 6 6 6 6 3 4 7 3 3 3 1 3 1 4 4 2 8 5 5 12 10 10 10 9
26 23 27 27 15 20 5 4 9 11 18 5 8 15 11 14 11 12 11 8 14 8 6 6 4 8 7 2 2 7 1 3 4 1 0 2 5 2 7 6 11 12 10 9 9
22 23 16 24 26 24 6 5 7 8 6 11 12 10 11 11 4 11 12 8 9 13 7 5 4 4 2 2 4 5 4 1 2 1 2 5 3 3 5 4 3 9 9 9 9
14 7 9 25 29 17 4 16 10 16 3 9 10 10 12 17 7 10 11 9 9 14 2 3 5 5 3 0 1 2 4 4 2 2 3 4 3 4 7 8 6 6 9 8 8
11 4 10 29 25 4 8 7 12 19 3 6 5 6 7 8 10 7 5 1 7 5 7 3 4 3 5 7 7 2 2 2 2 2 3 2 1 5 7 9 9 8 8 8 8
5 7 21 32 4 3 7 8 13 10 12 1 2 6 4 8 9 7 7 2 9 11 8 4 4 4 3 4 4 2 5 5 4 4 1 2 5 4 6 7 5 8 8 8 7
4 3 13 4 9 6 6 15 10 8 4 6 5 6 4 6 3 6 6 4 10 8 9 8 2 4 2 2 1 3 5 4 3 2 6 5 4 4 5 5 5 3 3 2 2
1 4 2 2 4 16 12 12 8 8 8 3 5 3 0 3 4 6 3 1 6 4 5 6 4 4 5 4 5 4 5 8 5 3 4 7 3 8 9 8 7 8 8 9 6
3 3 2 4 7 2 9 8 11 7 11 12 4 9 6 5 5 4 6 4 3 5 3 4 4 3 0 7 4 4 5 10 10 12 6 3 12 3 3 2 2 5 5 5 5
3 4 2 1 5 12 5 6 19 14 8 5 8 13 10 6 7 8 9 5 5 6 4 2 2 2 3 6 7 5 9 12 16 11 14 13 20 9 5 7 5 5 4 2 4
9 3 2 5 5 6 9 10 12 14 11 12 17 12 13 9 2 3 8 10 9 8 3 6 5 3 3 5 1 6 17 18 8 6 14 9 10 5 4 6 5 4 1 3 4
Wind_Direction
354 353 348 345 344 345 341 338 336 331 325 307 298 309 327 333 195 228 216 7 353 338 300 279 239 212 227 238 9 297 257 250 264 261 163 90 132 82 15 98 339 53 65 102 136
346 348 349 349 343 341 341 338 331 328 322 320 294 295 332 321 294 242 155 318 341 326 279 235 215 188 205 205 179 219 235 270 13 16 34 113 270 141 172 212 121 97 96 125 144
338 344 352 347 348 343 337 337 333 330 325 317 277 261 269 325 282 100 148 250 321 305 277 285 301 192 236 214 209 204 246 38 52 27 358 95 1 36 216 246 188 166 146 158 168
330 329 336 349 342 347 341 335 336 332 333 339 242 261 298 312 312 112 96 59 41 10 267 216 231 213 231 197 225 262 243 0 44 60 341 16 311 115 230 14 4 128 141 148 163
318 324 328 337 346 345 345 336 331 329 332 351 188 234 320 249 278 94 88 337 309 278 239 219 221 216 229 214 175 234 278 119 17 101 273 328 264 251 268 209 89 83 109 158 170
305 316 323 329 338 343 344 333 326 310 314 134 169 253 281 279 109 96 69 248 316 239 190 264 255 261 327 224 193 14 277 165 208 221 234 248 247 223 230 216 134 127 167 186 141
304 305 314 321 329 337 340 333 317 267 258 220 196 252 285 275 148 124 107 138 209 293 190 1 335 261 222 253 79 301 273 232 224 213 251 51 260 232 231 179 163 161 191 172 145
303 303 305 312 325 332 335 329 307 243 239 252 249 250 252 162 181 174 175 139 134 130 59 155 246 309 297 78 211 227 228 230 176 178 139 140 272 224 186 176 184 171 182 153 164
299 299 302 301 313 330 332 323 288 244 226 250 266 206 265 155 192 190 195 164 130 133 130 139 248 240 146 216 198 203 259 210 155 180 144 186 280 88 148 165 214 179 182 176 188
289 291 298 295 302 325 334 323 266 220 241 247 253 283 193 222 158 173 181 174 179 153 156 198 218 216 212 200 156 313 226 266 182 189 212 219 246 268 174 203 217 192 197 202 171
284 283 287 290 295 315 340 322 210 208 230 208 196 225 145 96 134 200 175 184 200 208 213 197 222 209 207 214 262 329 313 325 106 113 193 237 254 245 201 187 206 221 222 208 156
277 276 273 279 289 303 329 265 56 340 291 227 254 228 158 163 164 193 175 197 191 213 213 138 228 230 55 73 129 251 262 279 61 129 174 262 265 237 220 185 197 218 208 215 124
274 269 267 269 290 289 220 264 297 331 260 263 206 216 181 181 208 178 186 204 209 229 184 237 93 110 136 144 208 225 243 297 324 339 226 277 274 230 221 78 54 308 250 134 130
291 262 259 254 274 205 220 213 296 329 272 199 194 234 183 196 224 168 191 212 204 236 214 226 114 152 163 225 205 269 40 53 292 305 284 180 289 165 133 171 175 225 132 122 132
297 268 248 223 301 238 163 116 111 256 272 137 141 111 163 180 125 154 150 134 227 190 142 98 144 181 203 150 122 98 45 4 325 279 300 236 132 355 143 175 179 190 147 145 144
287 281 243 213 231 253 178 117 126 223 244 165 131 191 165 206 164 122 168 256 340 133 185 76 357 229 76 88 58 106 193 203 248 238 349 218 173 216 180 190 162 178 155 140 139
280 284 223 204 195 205 168 108 193 223 82 171 179 180 184 177 165 175 182 185 173 150 187 149 181 86 161 128 146 211 256 304 345 349 226 136 209 258 122 126 162 161 155 145 151
278 278 221 204 185 159 113 185 206 227 237 139 155 164 194 159 190 189 170 200 227 250 147 161 198 160 193 255 183 188 324 172 217 249 176 94 235 215 114 54 140 145 156 151 156
278 275 237 205 191 163 155 200 221 211 282 148 148 170 212 180 153 168 216 203 198 205 185 165 111 57 29 54 8 144 204 318 23 184 59 219 180 76 82 102 91 144 146 163 171
267 239 214 199 185 172 204 216 213 254 336 170 184 201 184 184 156 172 184 214 216 176 132 149 104 175 105 217 302 342 144 80 355 140 254 253 221 176 176 176 185 180 165 178 180
253 228 189 190 161 177 208 227 214 247 217 201 241 228 194 171 173 183 204 70 130 149 107 113 104 129 136 210 174 152 209 59 77 111 190 297 268 355 159 167 180 189 187 194 201
240 232 160 155 160 193 199 187 230 213 231 265 308 263 263 155 174 195 206 80 122 137 156 163 117 148 176 62 18 302 214 156 143 237 188 154 274 55 81 63 92 180 188 196 201
226 197 179 274 220 208 206 221 248 212 184 207 227 268 55 144 135 166 140 11 124 168 161 182 192 102 92 29 27 212 174 118 106 79 197 149 251 124 124 147 166 149 54 336 211
172 194 240 132 305 207 204 208 217 200 234 222 282 114 100 166 81 165 102 140 137 184 80 118 176 155 179 168 130 187 197 169 150 152 205 215 200 190 191 187 189 198 202 218 225
190 270 196 188 233 150 180 182 189 162 202 195 234 245 181 178 127 162 105 114 161 122 157 118 170 122 119 134 148 162 174 181 197 213 181 186 226 197 166 169 17 71 54 42 20
225 182 205 144 205 195 199 215 202 188 151 208 226 221 206 169 172 184 133 160 182 166 159 7 151 113 211 179 178 226 205 205 216 234 254 271 280 289 299 83 61 38 7 2 329
210 236 271 174 163 177 212 214 220 197 203 200 209 228 244 203 49 341 137 152 147 144 131 151 131 138 148 107 228 280 233 202 189 199 214 221 234 268 228 207 160 147 36 327 316